| time (UTC) | temp F | wind direction | speed MPH | gust MPH | rain 1hr in | rain 24hr in | rain mn in | humidity % | barometer mb |
| 20260510182239 | 83 | 359 | 6.0 | 11.0 | 0.00 | 0.16 | 0.01 | 81 | 1014.3 |
| 20260510181739 | 82 | 350 | 6.0 | 11.0 | 0.00 | 0.16 | 0.01 | 81 | 1014.4 |
| 20260510181236 | 82 | 316 | 4.0 | 11.0 | 0.00 | 0.16 | 0.01 | 81 | 1014.6 |
| 20260510180736 | 82 | 317 | 4.0 | 9.0 | 0.00 | 0.16 | 0.01 | 81 | 1014.6 |
| 20260510180236 | 83 | 314 | 4.0 | 9.0 | 0.00 | 0.16 | 0.01 | 81 | 1014.6 |
| 20260510175235 | 82 | 5 | 3.0 | 7.0 | 0.00 | 0.16 | 0.01 | 81 | 1014.9 |
| 20260510174735 | 82 | 257 | 3.0 | 8.0 | 0.00 | 0.16 | 0.01 | 83 | 1014.9 |
| 20260510174232 | 82 | 24 | 3.0 | 8.0 | 0.00 | 0.16 | 0.01 | 84 | 1014.9 |
| 20260510173233 | 82 | 334 | 2.0 | 6.0 | 0.00 | 0.16 | 0.01 | 82 | 1015.0 |
| 20260510172735 | 82 | 273 | 1.0 | 6.0 | 0.00 | 0.16 | 0.01 | 83 | 1014.9 |
| 20260510172230 | 82 | 334 | 1.0 | 6.0 | 0.00 | 0.16 | 0.01 | 82 | 1014.9 |
| 20260510171730 | 83 | 111 | 2.0 | 6.0 | 0.00 | 0.16 | 0.01 | 82 | 1015.0 |
| 20260510171230 | 84 | 136 | 2.0 | 7.0 | 0.00 | 0.16 | 0.01 | 79 | 1015.0 |
| 20260510170730 | 83 | 48 | 2.0 | 7.0 | 0.00 | 0.16 | 0.01 | 81 | 1015.2 |
| 20260510170230 | 83 | 103 | 2.0 | 10.0 | 0.00 | 0.16 | 0.01 | 81 | 1015.2 |
| 20260510165730 | 82 | 206 | 3.0 | 10.0 | 0.00 | 0.16 | 0.01 | 81 | 1015.3 |
| 20260510165230 | 80 | 112 | 2.0 | 7.0 | 0.00 | 0.16 | 0.01 | 85 | 1015.3 |
| 20260510164230 | 79 | 0 | 1.0 | 4.0 | 0.00 | 0.16 | 0.01 | 90 | 1015.5 |
| 20260510163730 | 78 | 93 | 2.0 | 5.0 | 0.00 | 0.16 | 0.01 | 90 | 1015.7 |
| 20260510163233 | 79 | 223 | 2.0 | 5.0 | 0.00 | 0.16 | 0.01 | 88 | 1015.7 |
| 20260510162729 | 78 | 10 | 2.0 | 5.0 | 0.00 | 0.16 | 0.01 | 90 | 1015.7 |
| 20260510162229 | 78 | 97 | 2.0 | 6.0 | 0.00 | 0.16 | 0.01 | 90 | 1015.7 |
| 20260510161729 | 77 | 312 | 1.0 | 6.0 | 0.00 | 0.16 | 0.01 | 92 | 1015.8 |
| 20260510161225 | 77 | 211 | 1.0 | 3.0 | 0.00 | 0.16 | 0.01 | 93 | 1015.8 |
| 20260510160725 | 76 | 106 | 1.0 | 2.0 | 0.00 | 0.16 | 0.01 | 94 | 1015.9 |
| 20260510160226 | 76 | 0 | 0.0 | 2.0 | 0.00 | 0.17 | 0.01 | 94 | 1015.9 |
| 20260510155723 | 76 | 153 | 0.0 | 2.0 | 0.00 | 0.17 | 0.01 | 93 | 1016.0 |
| 20260510154724 | 76 | 0 | 0.0 | 2.0 | 0.00 | 0.17 | 0.01 | 94 | 1015.9 |
| 20260510154225 | 76 | 0 | 0.0 | 2.0 | 0.00 | 0.17 | 0.01 | 93 | 1015.8 |
| 20260510153719 | 76 | 316 | 1.0 | 5.0 | 0.00 | 0.17 | 0.01 | 93 | 1015.8 |
| 20260510153216 | 76 | 0 | 0.0 | 5.0 | 0.00 | 0.17 | 0.01 | 94 | 1015.8 |
| 20260510152717 | 76 | 61 | 0.0 | 1.0 | 0.00 | 0.17 | 0.01 | 94 | 1015.8 |
| 20260510152213 | 75 | 0 | 0.0 | 1.0 | 0.00 | 0.17 | 0.01 | 95 | 1015.7 |
| 20260510151211 | 74 | 107 | 0.0 | 1.0 | 0.00 | 0.17 | 0.01 | 97 | 1015.7 |
| 20260510150703 | 74 | 198 | 0.0 | 2.0 | 0.00 | 0.17 | 0.01 | 99 | 1015.8 |
| 20260510150202 | 74 | 0 | 0.0 | 2.0 | 0.00 | 0.17 | 0.01 | 99 | 1015.7 |
| 20260510145702 | 74 | 205 | 0.0 | 2.0 | 0.00 | 0.17 | 0.01 | 99 | 1015.7 |
| 20260510145202 | 73 | 0 | 0.0 | 2.0 | 0.00 | 0.17 | 0.01 | 100 | 1015.7 |
| 20260510143701 | 73 | 221 | 1.0 | 3.0 | 0.00 | 0.17 | 0.01 | 100 | 1015.7 |
| 20260510143202 | 73 | 0 | 0.0 | 3.0 | 0.00 | 0.17 | 0.01 | 100 | 1015.7 |
| 20260510142702 | 73 | 0 | 0.0 | 2.0 | 0.00 | 0.17 | 0.01 | 100 | 1015.7 |
| 20260510142201 | 72 | 0 | 0.0 | 2.0 | 0.00 | 0.17 | 0.01 | 100 | 1015.6 |
| 20260510140702 | 72 | 0 | 1.0 | 1.0 | 0.00 | 0.17 | 0.01 | 100 | 1015.4 |
| 20260510140202 | 72 | 0 | 1.0 | 3.0 | 0.00 | 0.17 | 0.01 | 100 | 1015.4 |
| 20260510135702 | 72 | 0 | 1.0 | 3.0 | 0.00 | 0.17 | 0.01 | 100 | 1015.4 |
| 20260510135201 | 72 | 48 | 1.0 | 3.0 | 0.00 | 0.17 | 0.01 | 100 | 1015.4 |
| 20260510134700 | 71 | 0 | 1.0 | 3.0 | 0.00 | 0.17 | 0.01 | 100 | 1015.4 |
| 20260510133700 | 71 | 231 | 2.0 | 3.0 | 0.00 | 0.17 | 0.01 | 100 | 1015.3 |
| 20260510133201 | 71 | 19 | 2.0 | 4.0 | 0.00 | 0.17 | 0.01 | 100 | 1015.4 |
| 20260510132701 | 71 | 25 | 3.0 | 4.0 | 0.00 | 0.17 | 0.01 | 100 | 1015.3 |
| 20260510132202 | 71 | 30 | 2.0 | 3.0 | 0.00 | 0.17 | 0.01 | 99 | 1015.3 |
| 20260510131701 | 71 | 336 | 2.0 | 3.0 | 0.00 | 0.17 | 0.01 | 100 | 1015.4 |
| 20260510131201 | 71 | 315 | 1.0 | 3.0 | 0.00 | 0.17 | 0.01 | 100 | 1015.4 |
| 20260510130701 | 71 | 345 | 2.0 | 5.0 | 0.00 | 0.17 | 0.01 | 100 | 1015.3 |
| 20260510130201 | 71 | 268 | 4.0 | 7.0 | 0.00 | 0.17 | 0.01 | 99 | 1015.1 |
| 20260510125700 | 71 | 9 | 4.0 | 7.0 | 0.00 | 0.17 | 0.01 | 99 | 1015.1 |
| 20260510125159 | 71 | 27 | 3.0 | 5.0 | 0.00 | 0.17 | 0.01 | 99 | 1015.1 |
| 20260510124659 | 71 | 349 | 3.0 | 6.0 | 0.00 | 0.17 | 0.01 | 99 | 1015.0 |
| 20260510123659 | 71 | 348 | 3.0 | 5.0 | 0.01 | 0.17 | 0.01 | 99 | 1015.0 |
| 20260510123157 | 71 | 11 | 3.0 | 5.0 | 0.01 | 0.17 | 0.01 | 99 | 1014.8 |
| 20260510122651 | 71 | 335 | 2.0 | 4.0 | 0.01 | 0.17 | 0.01 | 99 | 1014.8 |
| 20260510122152 | 71 | 0 | 2.0 | 4.0 | 0.01 | 0.17 | 0.01 | 99 | 1014.8 |
| 20260510121644 | 71 | 355 | 2.0 | 4.0 | 0.01 | 0.17 | 0.01 | 99 | 1014.6 |
| 20260510120644 | 71 | 7 | 3.0 | 4.0 | 0.01 | 0.17 | 0.01 | 99 | 1014.5 |
| 20260510115645 | 71 | 1 | 2.0 | 4.0 | 0.01 | 0.17 | 0.01 | 99 | 1014.4 |
| 20260510115145 | 71 | 15 | 2.0 | 4.0 | 0.00 | 0.17 | 0.00 | 99 | 1014.4 |
| 20260510114643 | 71 | 334 | 2.0 | 3.0 | 0.00 | 0.17 | 0.00 | 99 | 1014.4 |
| 20260510114142 | 71 | 350 | 1.0 | 3.0 | 0.00 | 0.17 | 0.00 | 99 | 1014.3 |
| 20260510113630 | 71 | 348 | 1.0 | 3.0 | 0.00 | 0.17 | 0.00 | 99 | 1014.1 |
| 20260510113130 | 71 | 0 | 0.0 | 2.0 | 0.00 | 0.17 | 0.00 | 99 | 1014.0 |
| 20260510112629 | 70 | 39 | 0.0 | 2.0 | 0.00 | 0.17 | 0.00 | 99 | 1014.0 |
| 20260510112130 | 70 | 0 | 1.0 | 2.0 | 0.00 | 0.17 | 0.00 | 99 | 1014.1 |
| 20260510111629 | 70 | 352 | 1.0 | 2.0 | 0.00 | 0.17 | 0.00 | 99 | 1014.1 |
| 20260510111133 | 70 | 340 | 0.0 | 2.0 | 0.00 | 0.17 | 0.00 | 99 | 1014.0 |
| 20260510110630 | 70 | 0 | 0.0 | 0.0 | 0.00 | 0.17 | 0.00 | 99 | 1013.8 |
| 20260510110129 | 70 | 0 | 0.0 | 1.0 | 0.00 | 0.17 | 0.00 | 99 | 1013.7 |
| 20260510105630 | 70 | 263 | 0.0 | 1.0 | 0.00 | 0.17 | 0.00 | 99 | 1013.6 |
| 20260510105129 | 70 | 0 | 0.0 | 0.0 | 0.00 | 0.17 | 0.00 | 99 | 1013.4 |
| 20260510104629 | 70 | 0 | 0.0 | 0.0 | 0.00 | 0.17 | 0.00 | 99 | 1013.3 |
| 20260510103630 | 70 | 0 | 0.0 | 0.0 | 0.00 | 0.17 | 0.00 | 99 | 1013.3 |
| 20260510103130 | 70 | 0 | 0.0 | 1.0 | 0.00 | 0.17 | 0.00 | 99 | 1013.4 |
| 20260510102628 | 70 | 0 | 0.0 | 1.0 | 0.00 | 0.17 | 0.00 | 99 | 1013.4 |
| 20260510102130 | 70 | 0 | 0.0 | 1.0 | 0.00 | 0.17 | 0.00 | 99 | 1013.4 |
| 20260510101630 | 70 | 0 | 0.0 | 1.0 | 0.00 | 0.17 | 0.00 | 99 | 1013.3 |
| 20260510101130 | 71 | 0 | 0.0 | 1.0 | 0.00 | 0.17 | 0.00 | 99 | 1013.2 |
| 20260510100630 | 71 | 0 | 0.0 | 1.0 | 0.00 | 0.17 | 0.00 | 99 | 1013.2 |
| 20260510100130 | 71 | 311 | 0.0 | 1.0 | 0.00 | 0.17 | 0.00 | 99 | 1013.1 |
| 20260510095630 | 71 | 0 | 0.0 | 0.0 | 0.00 | 0.17 | 0.00 | 99 | 1013.1 |
| 20260510095130 | 71 | 0 | 0.0 | 0.0 | 0.00 | 0.17 | 0.00 | 99 | 1013.0 |
| 20260510094629 | 71 | 0 | 0.0 | 0.0 | 0.00 | 0.17 | 0.00 | 99 | 1012.9 |
| 20260510094133 | 71 | 0 | 0.0 | 0.0 | 0.00 | 0.17 | 0.00 | 99 | 1012.9 |
| 20260510093629 | 71 | 0 | 0.0 | 0.0 | 0.00 | 0.17 | 0.00 | 99 | 1012.9 |
| 20260510093130 | 71 | 0 | 0.0 | 1.0 | 0.00 | 0.17 | 0.00 | 99 | 1012.8 |
| 20260510092630 | 71 | 0 | 0.0 | 1.0 | 0.00 | 0.17 | 0.00 | 99 | 1012.8 |
| 20260510091621 | 71 | 0 | 0.0 | 1.0 | 0.00 | 0.17 | 0.00 | 99 | 1012.6 |
| 20260510091118 | 71 | 0 | 1.0 | 2.0 | 0.00 | 0.17 | 0.00 | 99 | 1012.5 |
| 20260510090618 | 71 | 180 | 2.0 | 2.0 | 0.00 | 0.17 | 0.00 | 99 | 1012.4 |
| 20260510090119 | 71 | 88 | 1.0 | 2.0 | 0.00 | 0.17 | 0.00 | 99 | 1012.3 |
| 20260510085618 | 71 | 90 | 0.0 | 2.0 | 0.00 | 0.17 | 0.00 | 99 | 1012.4 |
| 20260510085119 | 71 | 0 | 0.0 | 1.0 | 0.00 | 0.17 | 0.00 | 99 | 1012.4 |
| 20260510084618 | 71 | 0 | 0.0 | 0.0 | 0.00 | 0.17 | 0.00 | 99 | 1012.4 |
| 20260510083609 | 71 | 0 | 0.0 | 2.0 | 0.00 | 0.17 | 0.00 | 99 | 1012.3 |
| 20260510083109 | 71 | 0 | 1.0 | 2.0 | 0.00 | 0.17 | 0.00 | 99 | 1012.2 |
| 20260510082603 | 71 | 344 | 1.0 | 2.0 | 0.00 | 0.17 | 0.00 | 99 | 1012.2 |
| 20260510082104 | 71 | 0 | 1.0 | 3.0 | 0.00 | 0.17 | 0.00 | 99 | 1012.1 |
| 20260510081103 | 71 | 90 | 1.0 | 3.0 | 0.00 | 0.17 | 0.00 | 99 | 1012.0 |
| 20260510080603 | 71 | 90 | 0.0 | 2.0 | 0.00 | 0.17 | 0.00 | 99 | 1012.1 |
| 20260510080103 | 71 | 0 | 0.0 | 0.0 | 0.00 | 0.17 | 0.00 | 99 | 1012.1 |
| 20260510075603 | 71 | 0 | 0.0 | 2.0 | 0.00 | 0.17 | 0.00 | 99 | 1012.1 |
| 20260510075106 | 71 | 0 | 0.0 | 2.0 | 0.00 | 0.17 | 0.00 | 99 | 1012.2 |
| 20260510074603 | 71 | 0 | 0.0 | 2.0 | 0.00 | 0.17 | 0.00 | 99 | 1012.2 |
| 20260510074105 | 71 | 0 | 0.0 | 0.0 | 0.00 | 0.17 | 0.00 | 99 | 1012.3 |
| 20260510073603 | 71 | 0 | 0.0 | 1.0 | 0.00 | 0.17 | 0.00 | 99 | 1012.3 |
| 20260510073103 | 71 | 0 | 0.0 | 1.0 | 0.00 | 0.17 | 0.00 | 99 | 1012.3 |
| 20260510072601 | 71 | 0 | 0.0 | 1.0 | 0.00 | 0.17 | 0.00 | 99 | 1012.2 |
| 20260510072102 | 71 | 0 | 0.0 | 1.0 | 0.00 | 0.17 | 0.00 | 99 | 1012.1 |
| 20260510071102 | 71 | 0 | 0.0 | 0.0 | 0.00 | 0.17 | 0.00 | 99 | 1012.1 |
| 20260510070602 | 71 | 0 | 0.0 | 1.0 | 0.00 | 0.17 | 0.00 | 99 | 1012.2 |
| 20260510070105 | 71 | 62 | 0.0 | 1.0 | 0.00 | 0.17 | 0.00 | 99 | 1012.1 |
| 20260510064626 | 71 | 0 | 0.0 | 1.0 | 0.00 | 0.17 | 0.00 | 99 | 1012.1 |
| 20260510064102 | 71 | 0 | 0.0 | 1.0 | 0.00 | 0.17 | 0.00 | 99 | 1012.2 |
| 20260510063602 | 71 | 170 | 0.0 | 1.0 | 0.00 | 0.17 | 0.00 | 99 | 1012.2 |
| 20260510063102 | 71 | 0 | 0.0 | 2.0 | 0.00 | 0.17 | 0.00 | 99 | 1012.2 |
| 20260510062603 | 71 | 0 | 0.0 | 2.0 | 0.00 | 0.17 | 0.00 | 99 | 1012.3 |
| 20260510061601 | 71 | 0 | 1.0 | 2.0 | 0.00 | 0.17 | 0.00 | 99 | 1012.3 |
| 20260510061102 | 71 | 197 | 0.0 | 2.0 | 0.00 | 0.17 | 0.00 | 99 | 1012.4 |
| 20260510060101 | 71 | 0 | 1.0 | 4.0 | 0.00 | 0.17 | 0.00 | 99 | 1012.4 |
| 20260510055602 | 71 | 110 | 1.0 | 4.0 | 0.00 | 0.17 | 0.00 | 99 | 1012.4 |
| 20260510055102 | 71 | 0 | 0.0 | 2.0 | 0.00 | 0.17 | 0.00 | 99 | 1012.5 |
| 20260510054602 | 71 | 190 | 0.0 | 3.0 | 0.00 | 0.17 | 0.00 | 99 | 1012.7 |
| 20260510054102 | 71 | 0 | 0.0 | 3.0 | 0.00 | 0.17 | 0.00 | 99 | 1012.7 |
| 20260510053101 | 70 | 101 | 0.0 | 2.0 | 0.00 | 0.17 | 0.00 | 99 | 1012.8 |
| 20260510052603 | 70 | 185 | 0.0 | 2.0 | 0.00 | 0.17 | 0.00 | 99 | 1012.9 |
| 20260510052102 | 70 | 0 | 1.0 | 3.0 | 0.00 | 0.17 | 0.00 | 100 | 1012.9 |
| 20260510051601 | 70 | 151 | 1.0 | 3.0 | 0.00 | 0.17 | 0.00 | 100 | 1013.0 |
| 20260510051102 | 69 | 167 | 0.0 | 2.0 | 0.00 | 0.17 | 0.00 | 100 | 1013.0 |
| 20260510050602 | 69 | 178 | 0.0 | 2.0 | 0.00 | 0.17 | 0.00 | 100 | 1013.1 |
| 20260510045607 | 69 | 0 | 0.0 | 0.0 | 0.00 | 0.27 | 0.00 | 100 | 1013.4 |
| 20260510045103 | 69 | 0 | 0.0 | 0.0 | 0.00 | 0.50 | 0.00 | 100 | 1013.4 |
| 20260510044601 | 69 | 0 | 0.0 | 0.0 | 0.00 | 0.50 | 0.00 | 100 | 1013.5 |
| 20260510044102 | 69 | 0 | 0.0 | 0.0 | 0.00 | 0.50 | 0.00 | 100 | 1013.5 |
| 20260510043602 | 69 | 0 | 0.0 | 0.0 | 0.00 | 0.50 | 0.00 | 100 | 1013.4 |
| 20260510043101 | 69 | 0 | 0.0 | 0.0 | 0.00 | 0.50 | 0.00 | 100 | 1013.4 |
| 20260510042602 | 69 | 0 | 0.0 | 0.0 | 0.00 | 0.50 | 0.00 | 100 | 1013.3 |
| 20260510042102 | 69 | 0 | 0.0 | 0.0 | 0.00 | 0.50 | 0.00 | 100 | 1013.3 |
| 20260510041601 | 69 | 0 | 0.0 | 0.0 | 0.00 | 0.50 | 0.00 | 100 | 1013.3 |
| 20260510041101 | 69 | 0 | 0.0 | 0.0 | 0.00 | 0.50 | 0.00 | 100 | 1013.4 |
| 20260510040602 | 69 | 0 | 0.0 | 0.0 | 0.00 | 0.50 | 0.00 | 100 | 1013.4 |
| 20260510035602 | 69 | 0 | 0.0 | 1.0 | 0.00 | 0.50 | 0.50 | 100 | 1013.4 |
| 20260510035102 | 69 | 0 | 0.0 | 0.0 | 0.00 | 0.50 | 0.50 | 100 | 1013.5 |
| 20260510034602 | 69 | 0 | 0.0 | 0.0 | 0.00 | 0.50 | 0.50 | 100 | 1013.4 |
| 20260510034100 | 69 | 0 | 0.0 | 0.0 | 0.00 | 0.50 | 0.50 | 100 | 1013.5 |
| 20260510033602 | 69 | 0 | 0.0 | 0.0 | 0.00 | 0.50 | 0.50 | 99 | 1013.5 |
| 20260510032103 | 69 | 0 | 0.0 | 2.0 | 0.00 | 0.50 | 0.50 | 99 | 1013.5 |
| 20260510031602 | 69 | 165 | 0.0 | 1.0 | 0.00 | 0.50 | 0.50 | 99 | 1013.5 |
| 20260510030601 | 69 | 0 | 0.0 | 0.0 | 0.00 | 0.50 | 0.50 | 99 | 1013.6 |
| 20260510025601 | 69 | 0 | 0.0 | 0.0 | 0.00 | 0.50 | 0.50 | 99 | 1013.5 |
| 20260510024602 | 70 | 0 | 0.0 | 0.0 | 0.00 | 0.50 | 0.50 | 99 | 1013.2 |
| 20260510024102 | 70 | 0 | 0.0 | 1.0 | 0.00 | 0.50 | 0.50 | 99 | 1013.2 |
| 20260510023602 | 70 | 0 | 0.0 | 1.0 | 0.00 | 0.50 | 0.50 | 99 | 1013.2 |
| 20260510023100 | 70 | 0 | 0.0 | 2.0 | 0.00 | 0.50 | 0.50 | 99 | 1013.0 |
| 20260510022602 | 70 | 0 | 1.0 | 3.0 | 0.00 | 0.50 | 0.50 | 99 | 1013.0 |
| 20260510022103 | 70 | 161 | 1.0 | 3.0 | 0.00 | 0.50 | 0.50 | 99 | 1012.7 |
| 20260510021101 | 70 | 0 | 0.0 | 0.0 | 0.00 | 0.50 | 0.50 | 99 | 1012.8 |
| 20260510020601 | 70 | 0 | 0.0 | 0.0 | 0.00 | 0.50 | 0.50 | 99 | 1012.7 |
| 20260510015106 | 70 | 297 | 1.0 | 2.0 | 0.00 | 0.50 | 0.50 | 99 | 1012.5 |
| 20260510014602 | 70 | 274 | 1.0 | 2.0 | 0.00 | 0.50 | 0.50 | 99 | 1012.4 |
| 20260510014102 | 70 | 285 | 1.0 | 2.0 | 0.00 | 0.50 | 0.50 | 99 | 1012.2 |
| 20260510013602 | 70 | 0 | 0.0 | 0.0 | 0.00 | 0.50 | 0.50 | 99 | 1012.1 |
| 20260510013102 | 70 | 0 | 1.0 | 2.0 | 0.00 | 0.50 | 0.50 | 99 | 1012.0 |
| 20260510011602 | 70 | 0 | 0.0 | 1.0 | 0.00 | 0.50 | 0.50 | 98 | 1012.0 |
| 20260510011104 | 70 | 0 | 0.0 | 2.0 | 0.00 | 0.50 | 0.50 | 98 | 1012.1 |
| 20260510010602 | 70 | 0 | 0.0 | 2.0 | 0.00 | 0.50 | 0.50 | 98 | 1012.2 |
| 20260510005103 | 70 | 0 | 0.0 | 1.0 | 0.00 | 0.50 | 0.50 | 98 | 1012.1 |
| 20260510004602 | 70 | 0 | 0.0 | 0.0 | 0.00 | 0.50 | 0.50 | 98 | 1012.0 |
| 20260510003602 | 70 | 0 | 0.0 | 1.0 | 0.00 | 0.50 | 0.50 | 98 | 1011.9 |
| 20260510003102 | 70 | 0 | 0.0 | 1.0 | 0.01 | 0.50 | 0.50 | 98 | 1012.0 |
| 20260510002602 | 70 | 0 | 0.0 | 1.0 | 0.02 | 0.50 | 0.50 | 98 | 1012.0 |
| 20260510002102 | 70 | 0 | 0.0 | 0.0 | 0.02 | 0.50 | 0.50 | 98 | 1012.2 |
| 20260510001603 | 70 | 0 | 0.0 | 2.0 | 0.02 | 0.50 | 0.50 | 98 | 1012.3 |
| 20260510001102 | 70 | 0 | 0.0 | 2.0 | 0.03 | 0.50 | 0.50 | 98 | 1012.3 |
| 20260510000602 | 70 | 0 | 0.0 | 1.0 | 0.03 | 0.50 | 0.50 | 97 | 1012.3 |
| 20260509235602 | 70 | 217 | 0.0 | 2.0 | 0.03 | 0.50 | 0.50 | 97 | 1012.5 |
| 20260509235102 | 70 | 0 | 1.0 | 3.0 | 0.03 | 0.50 | 0.50 | 97 | 1012.5 |
| 20260509234603 | 71 | 312 | 2.0 | 3.0 | 0.03 | 0.50 | 0.50 | 97 | 1012.5 |
| 20260509234100 | 71 | 307 | 1.0 | 3.0 | 0.02 | 0.50 | 0.50 | 97 | 1012.8 |
| 20260509233600 | 71 | 0 | 1.0 | 2.0 | 0.02 | 0.50 | 0.50 | 97 | 1012.9 |
| 20260509233101 | 71 | 232 | 0.0 | 2.0 | 0.02 | 0.49 | 0.49 | 96 | 1012.7 |
| 20260509232106 | 71 | 0 | 0.0 | 0.0 | 0.01 | 0.49 | 0.49 | 96 | 1012.5 |
| 20260509231601 | 71 | 0 | 0.0 | 1.0 | 0.01 | 0.49 | 0.49 | 96 | 1012.5 |
| 20260509225603 | 71 | 288 | 0.0 | 2.0 | 0.00 | 0.48 | 0.48 | 95 | 1012.5 |
| 20260509225101 | 71 | 0 | 0.0 | 2.0 | 0.00 | 0.48 | 0.48 | 95 | 1012.4 |
| 20260509224602 | 71 | 29 | 0.0 | 2.0 | 0.00 | 0.48 | 0.48 | 95 | 1012.4 |
| 20260509223558 | 71 | 0 | 1.0 | 4.0 | 0.00 | 0.48 | 0.48 | 95 | 1012.3 |
| 20260509223104 | 71 | 42 | 1.0 | 4.0 | 0.00 | 0.48 | 0.48 | 95 | 1012.2 |
| 20260509222059 | 71 | 34 | 1.0 | 3.0 | 0.00 | 0.48 | 0.48 | 95 | 1012.2 |
| 20260509221549 | 71 | 13 | 2.0 | 4.0 | 0.00 | 0.48 | 0.48 | 95 | 1012.2 |
| 20260509221043 | 71 | 35 | 2.0 | 4.0 | 0.00 | 0.48 | 0.48 | 95 | 1012.2 |
| 20260509220544 | 71 | 65 | 1.0 | 3.0 | 0.00 | 0.48 | 0.48 | 95 | 1012.2 |
| 20260509220044 | 71 | 15 | 2.0 | 3.0 | 0.00 | 0.48 | 0.48 | 95 | 1012.1 |
| 20260509215545 | 71 | 36 | 2.0 | 4.0 | 0.00 | 0.48 | 0.48 | 95 | 1012.1 |
| 20260509215044 | 71 | 18 | 2.0 | 4.0 | 0.00 | 0.48 | 0.48 | 95 | 1012.2 |
| 20260509214544 | 71 | 12 | 1.0 | 3.0 | 0.00 | 0.48 | 0.48 | 95 | 1012.2 |
| 20260509214044 | 71 | 18 | 2.0 | 4.0 | 0.00 | 0.48 | 0.48 | 95 | 1012.0 |
| 20260509213544 | 71 | 25 | 2.0 | 4.0 | 0.00 | 0.48 | 0.48 | 95 | 1011.9 |
| 20260509213045 | 71 | 343 | 3.0 | 6.0 | 0.00 | 0.48 | 0.48 | 95 | 1012.0 |
| 20260509212545 | 71 | 20 | 3.0 | 6.0 | 0.00 | 0.48 | 0.48 | 95 | 1011.9 |
| 20260509211543 | 71 | 324 | 4.0 | 8.0 | 0.00 | 0.48 | 0.48 | 95 | 1011.9 |
| 20260509211044 | 71 | 353 | 5.0 | 9.0 | 0.00 | 0.48 | 0.48 | 95 | 1011.9 |
| 20260509210544 | 71 | 297 | 4.0 | 9.0 | 0.00 | 0.48 | 0.48 | 96 | 1011.9 |
| 20260509210043 | 71 | 309 | 4.0 | 7.0 | 0.00 | 0.48 | 0.48 | 96 | 1011.9 |
| 20260509205543 | 71 | 339 | 5.0 | 9.0 | 0.00 | 0.48 | 0.48 | 96 | 1011.8 |
| 20260509204544 | 71 | 330 | 4.0 | 9.0 | 0.00 | 0.48 | 0.48 | 96 | 1011.8 |
| 20260509204042 | 71 | 8 | 4.0 | 8.0 | 0.02 | 0.48 | 0.48 | 96 | 1011.9 |
| 20260509203542 | 71 | 354 | 5.0 | 10.0 | 0.03 | 0.48 | 0.48 | 96 | 1011.9 |
| 20260509203043 | 71 | 324 | 5.0 | 10.0 | 0.04 | 0.48 | 0.48 | 96 | 1011.8 |
| 20260509202042 | 71 | 302 | 5.0 | 9.0 | 0.06 | 0.48 | 0.48 | 96 | 1011.9 |
| 20260509201543 | 72 | 289 | 4.0 | 11.0 | 0.07 | 0.48 | 0.48 | 96 | 1011.9 |
| 20260509201042 | 72 | 346 | 5.0 | 11.0 | 0.07 | 0.48 | 0.48 | 96 | 1012.0 |
| 20260509200542 | 72 | 303 | 5.0 | 9.0 | 0.07 | 0.48 | 0.48 | 97 | 1012.0 |
| 20260509195541 | 73 | 291 | 4.0 | 8.0 | 0.10 | 0.48 | 0.48 | 96 | 1011.8 |
| 20260509195039 | 74 | 300 | 4.0 | 8.0 | 0.10 | 0.48 | 0.48 | 97 | 1011.9 |
| 20260509194535 | 74 | 267 | 4.0 | 8.0 | 0.12 | 0.49 | 0.48 | 96 | 1012.0 |
| 20260509194035 | 74 | 300 | 4.0 | 7.0 | 0.11 | 0.48 | 0.46 | 96 | 1012.0 |
| 20260509193535 | 74 | 278 | 4.0 | 6.0 | 0.10 | 0.46 | 0.45 | 95 | 1012.0 |
| 20260509193035 | 74 | 267 | 3.0 | 6.0 | 0.09 | 0.45 | 0.44 | 95 | 1011.8 |
| 20260509192531 | 75 | 291 | 2.0 | 5.0 | 0.08 | 0.45 | 0.43 | 94 | 1011.8 |
| 20260509192030 | 75 | 167 | 1.0 | 3.0 | 0.07 | 0.44 | 0.42 | 94 | 1011.9 |
| 20260509191534 | 75 | 302 | 1.0 | 3.0 | 0.06 | 0.43 | 0.41 | 93 | 1012.0 |
| 20260509191027 | 76 | 302 | 0.0 | 2.0 | 0.05 | 0.42 | 0.40 | 92 | 1011.9 |
| 20260509190522 | 76 | 0 | 0.0 | 4.0 | 0.05 | 0.43 | 0.40 | 91 | 1012.0 |
| 20260509190023 | 77 | 0 | 0.0 | 4.0 | 0.04 | 0.42 | 0.39 | 91 | 1012.0 |
| 20260509185021 | 78 | 0 | 0.0 | 4.0 | 0.02 | 0.40 | 0.37 | 88 | 1011.7 |
| 20260509184519 | 78 | 0 | 2.0 | 7.0 | 0.01 | 0.39 | 0.36 | 86 | 1011.6 |
| 20260509184020 | 78 | 248 | 3.0 | 7.0 | 0.00 | 0.38 | 0.35 | 85 | 1011.6 |
| 20260509183521 | 79 | 298 | 1.0 | 4.0 | 0.00 | 0.38 | 0.35 | 85 | 1011.7 |
| 20260509183007 | 79 | 17 | 2.0 | 5.0 | 0.00 | 0.38 | 0.35 | 84 | 1011.7 |
| 20260509182509 | 79 | 251 | 2.0 | 5.0 | 0.00 | 0.38 | 0.35 | 84 | 1011.9 |